Temp
25 25 24 24 24 24 24 24 25 26 26 25 25 25 25 25 25 24 24 23 23 22 22 22 23 23 23 23 23 23 23 22 23 23 23 23 23 23 23 23 23 23 23 23 22 22 22 22 22 22 21 21 21 21 20 20 20 19 20 20 20 20 20
26 25 25 24 24 24 24 24 25 26 27 26 26 26 25 25 26 25 25 24 24 23 23 23 23 23 24 24 23 23 23 23 23 22 22 22 22 23 23 23 23 23 23 23 23 22 22 22 22 22 21 21 21 21 21 20 20 20 20 20 20 20 20
26 26 25 25 24 24 24 24 24 25 26 26 27 27 26 26 27 26 26 25 25 25 24 24 23 24 24 24 24 24 23 23 23 23 22 22 22 22 22 22 23 23 23 23 23 23 22 22 22 22 21 21 21 21 21 20 20 20 20 20 20 20 20
27 26 26 25 25 25 24 25 25 25 25 26 27 28 28 28 28 27 26 26 26 26 25 25 25 24 24 24 24 24 24 23 23 23 23 23 22 22 22 22 22 22 22 22 22 22 22 22 22 22 22 21 21 21 21 21 20 20 20 20 20 20 21
27 27 26 25 25 25 24 25 25 25 25 25 26 27 28 28 28 27 27 26 26 26 26 25 25 25 24 24 24 24 24 24 24 24 23 23 23 22 22 22 22 22 22 22 22 22 22 22 22 22 22 22 21 21 21 21 21 20 20 20 20 20 21
28 27 26 26 26 25 25 25 25 25 26 26 26 27 28 28 27 27 27 26 26 26 25 25 25 25 25 25 24 24 24 24 24 24 24 23 23 23 22 22 22 22 22 22 22 22 22 22 22 22 22 22 22 22 22 21 21 21 20 20 20 20 21
29 28 27 27 27 26 26 26 25 25 26 26 26 26 26 26 26 27 27 27 27 26 26 25 25 24 25 25 24 24 24 24 24 24 24 23 23 23 23 23 22 22 22 22 22 22 22 22 22 22 22 22 22 22 22 22 21 21 21 21 21 21 21
30 29 28 28 28 27 27 26 26 25 25 25 25 25 25 25 25 26 26 27 27 26 26 26 26 25 25 25 25 25 25 24 24 24 24 24 23 23 23 23 23 22 22 22 22 22 22 22 22 22 22 22 22 22 22 22 22 21 21 21 21 21 21
29 28 28 28 27 27 27 27 26 25 25 25 25 26 26 25 25 25 26 27 26 26 26 27 26 26 26 26 25 25 25 24 24 24 24 24 23 23 23 23 23 23 23 22 22 22 22 22 22 22 22 22 22 22 22 22 22 21 21 21 21 21 21
29 29 28 27 27 27 27 27 26 26 25 25 25 25 25 25 25 25 26 26 26 26 27 27 26 26 26 26 26 25 25 24 24 24 24 23 23 23 23 23 23 23 23 23 22 22 22 22 22 22 22 22 22 22 22 22 22 22 22 21 21 21 21
30 29 29 28 28 27 27 27 27 26 26 26 25 25 25 25 25 25 25 25 26 26 27 26 25 25 26 26 25 25 25 25 25 24 24 23 23 23 23 23 23 23 23 23 22 22 22 22 22 22 22 22 22 22 22 22 22 22 22 21 21 21 21
28 28 29 30 29 28 27 27 27 27 27 26 26 26 25 25 25 25 25 25 26 26 26 25 25 25 25 26 25 25 25 26 25 25 24 24 24 24 24 23 23 23 23 23 23 23 23 22 22 22 22 22 22 22 22 22 22 22 22 22 21 21 21
28 29 30 30 29 28 27 27 27 27 27 27 26 26 26 26 25 25 25 26 26 25 25 25 25 25 25 25 25 25 26 26 26 25 25 25 25 25 25 24 24 24 24 24 23 23 23 23 22 22 22 22 22 23 23 22 22 22 22 22 22 21 21
29 31 31 31 30 29 29 28 28 28 28 27 27 27 26 26 26 26 26 27 27 26 25 25 25 25 25 25 25 25 26 26 26 26 25 26 26 26 25 25 24 24 24 24 23 23 23 23 23 22 22 22 22 23 23 22 22 22 22 22 22 22 21
30 31 32 32 31 31 31 30 29 29 28 27 27 27 26 26 26 26 26 27 27 26 26 26 26 26 26 25 25 26 26 26 25 26 26 26 26 25 25 25 25 24 24 24 24 23 23 23 23 22 22 22 22 22 22 22 22 22 22 22 22 22 22
30 31 32 32 32 31 31 31 30 30 29 28 27 27 27 26 26 26 26 27 27 27 26 26 26 26 25 25 26 26 26 25 25 25 25 25 25 25 25 25 25 25 24 24 24 24 23 23 23 22 22 22 22 23 22 22 22 23 23 22 22 22 22
32 33 32 32 31 31 31 30 29 29 29 28 28 28 27 27 27 27 27 27 27 27 27 27 27 26 26 26 27 26 25 25 25 25 25 25 25 25 25 25 25 25 25 24 24 24 23 23 23 22 22 22 22 23 23 22 23 23 23 23 22 22 22
32 33 32 31 31 31 31 30 29 29 29 29 28 28 28 28 27 27 27 27 28 28 27 27 27 27 27 27 26 25 25 25 24 25 25 25 24 24 24 24 24 24 24 24 24 24 23 23 23 22 22 22 22 22 23 23 23 23 23 23 23 22 22
32 32 32 32 31 31 32 32 31 30 29 29 29 29 29 28 28 28 28 28 28 28 27 27 28 28 27 27 26 25 25 25 24 24 24 24 24 24 23 24 24 24 24 24 24 24 24 23 23 23 22 22 22 22 23 23 23 24 23 23 23 22 22
31 32 32 32 32 32 31 32 32 31 30 30 29 29 29 28 28 29 28 28 27 26 26 27 27 27 27 26 26 25 25 25 25 25 24 24 24 23 23 24 24 24 24 24 24 24 23 23 23 23 22 22 22 22 23 23 24 24 24 23 23 22 22
30 30 31 31 32 32 31 31 32 32 32 30 29 28 28 28 28 28 28 27 27 27 26 26 26 26 26 25 25 25 24 24 24 24 24 24 23 23 23 23 24 24 24 23 23 23 23 23 23 23 23 22 22 22 23 23 24 24 24 23 23 23 22
29 29 29 30 31 31 31 31 31 32 31 30 29 29 29 29 28 27 27 27 27 27 27 26 26 26 25 25 24 24 24 24 23 23 23 23 23 23 23 23 23 24 23 23 23 22 22 22 22 22 22 23 23 22 23 24 24 24 24 23 23 23 22
28 28 28 28 29 30 30 30 30 31 30 30 30 30 29 28 27 27 27 27 27 27 27 27 26 26 26 25 25 24 24 24 23 23 23 23 23 23 23 24 24 24 24 24 23 22 22 22 21 21 21 22 23 23 23 24 24 24 24 24 23 23 22
26 26 26 27 27 28 28 29 29 30 30 30 30 30 28 27 27 27 27 27 27 27 27 27 27 27 27 26 26 25 25 26 25 25 24 24 24 24 24 24 24 24 24 24 24 24 24 23 21 20 21 22 23 23 23 24 24 25 24 24 24 23 23
24 25 25 26 26 27 28 29 29 29 30 30 29 29 28 27 27 27 27 27 27 27 27 27 28 28 28 27 26 26 26 26 26 25 24 24 24 24 24 24 24 24 24 23 23 23 23 22 21 20 21 22 23 23 24 24 24 24 24 24 24 23 23
23 24 25 25 26 27 28 28 29 29 29 29 29 28 27 26 26 26 26 27 27 27 27 28 28 28 27 26 26 26 25 25 25 25 24 24 24 24 23 23 23 23 23 23 23 22 22 21 20 21 21 22 22 23 24 24 23 24 24 24 24 23 22
22 23 24 25 25 27 27 28 28 28 28 28 28 27 26 26 26 26 26 26 26 26 27 27 27 27 26 25 25 25 25 25 25 25 24 24 24 24 23 23 23 23 23 23 22 22 21 20 20 20 20 21 21 21 23 24 24 24 24 24 23 23 22
19 21 23 23 24 26 27 27 28 28 27 27 26 26 26 25 25 25 25 25 26 26 26 26 26 26 25 25 25 25 25 25 25 25 24 24 23 23 23 23 22 22 22 22 22 21 20 20 19 19 19 19 19 20 22 24 24 24 24 24 23 23 22
19 20 21 22 23 24 26 27 27 28 27 27 26 26 25 25 25 25 25 25 25 25 25 25 25 25 25 25 25 25 25 25 25 25 24 24 24 23 23 22 22 22 22 22 21 20 20 20 19 19 19 19 19 20 22 23 24 24 24 24 23 23 23
18 18 19 20 22 23 25 26 27 27 27 27 26 25 25 24 24 24 24 24 24 24 24 24 24 24 24 24 24 25 25 25 25 25 24 24 24 24 23 23 22 22 22 22 22 21 20 20 20 20 19 19 19 19 20 22 24 25 24 23 23 23 23
16 17 17 19 20 22 23 24 25 25 25 25 25 24 24 23 23 23 23 23 23 24 24 24 24 24 24 24 24 24 24 24 24 24 24 24 23 23 23 23 22 22 22 22 22 21 21 20 20 21 20 20 19 19 19 20 22 24 24 23 23 23 22
15 16 17 19 20 21 22 23 24 24 24 24 24 23 23 23 23 23 23 23 24 24 24 24 24 24 24 24 24 23 23 23 23 23 23 23 22 22 23 22 22 22 22 21 21 21 21 20 20 21 22 22 21 20 19 18 19 21 22 22 22 21 21
15 16 18 19 19 19 19 21 22 23 23 23 23 23 23 23 23 23 23 24 24 24 24 24 24 24 24 23 23 23 22 22 22 22 22 22 22 22 22 22 22 22 21 21 21 20 20 20 20 20 20 21 21 20 20 19 19 19 19 19 19 19 20
15 16 17 18 18 17 17 17 19 21 22 23 23 23 23 23 23 24 24 24 24 24 24 24 24 23 23 23 23 22 22 21 21 22 22 22 22 22 22 22 22 22 22 21 21 21 20 20 20 20 20 20 20 19 19 19 19 19 20 19 19 19 19
15 15 16 17 17 17 16 16 17 19 20 21 21 21 22 22 23 23 23 24 24 24 24 24 23 23 23 22 22 21 21 21 21 21 21 21 21 21 21 21 21 22 22 22 22 22 21 21 21 21 22 22 21 19 19 20 21 22 23 22 20 20 20
14 15 15 16 16 16 15 16 16 18 19 20 20 20 21 21 21 22 22 22 22 22 22 23 23 22 22 22 22 21 21 20 20 19 20 20 20 20 21 21 21 21 21 21 21 21 21 21 21 21 22 22 22 21 22 23 24 24 24 23 23 22 21
15 15 15 16 17 16 16 16 16 17 18 19 19 20 20 20 21 21 21 21 21 21 21 21 21 22 22 22 22 21 21 21 20 20 20 20 20 20 20 20 20 20 20 20 21 21 20 21 21 21 21 21 21 21 22 23 23 22 21 22 22 21 20
15 15 16 17 18 18 17 17 16 16 16 17 17 18 19 19 20 20 20 20 21 21 21 21 21 22 21 21 21 21 21 21 21 21 20 20 20 19 19 19 20 20 20 20 20 20 20 20 20 20 20 20 20 20 20 21 21 21 20 20 20 20 20
Height
1439 1442 1444 1447 1449 1451 1453 1456 1460 1464 1467 1470 1473 1476 1479 1482 1485 1488 1490 1493 1497 1500 1502 1505 1508 1510 1513 1515 1518 1521 1523 1525 1528 1530 1532 1534 1536 1538 1540 1543 1545 1547 1549 1551 1553 1555 1556 1558 1560 1561 1562 1563 1564 1565 1566 1567 1568 1570 1571 1571 1572 1573 1574
1436 1437 1439 1442 1444 1446 1448 1451 1456 1459 1462 1465 1469 1472 1474 1477 1480 1482 1486 1489 1492 1495 1498 1501 1503 1506 1509 1512 1514 1517 1519 1522 1524 1527 1529 1531 1533 1535 1537 1540 1542 1544 1546 1548 1551 1552 1554 1555 1557 1559 1560 1561 1562 1563 1564 1565 1566 1567 1568 1569 1570 1571 1572
1431 1432 1433 1436 1437 1439 1442 1447 1451 1454 1457 1460 1463 1467 1469 1471 1474 1477 1481 1484 1487 1491 1494 1496 1499 1502 1505 1508 1510 1513 1516 1518 1521 1523 1525 1527 1530 1532 1534 1537 1539 1541 1544 1546 1548 1549 1551 1553 1554 1556 1557 1559 1560 1561 1562 1563 1564 1565 1566 1567 1568 1569 1570
1425 1426 1428 1430 1431 1434 1438 1442 1446 1449 1452 1455 1457 1460 1463 1466 1469 1473 1476 1479 1483 1486 1488 1491 1494 1497 1500 1503 1506 1509 1512 1515 1517 1519 1522 1524 1527 1529 1531 1533 1536 1538 1540 1542 1545 1546 1548 1550 1551 1553 1554 1556 1557 1558 1559 1560 1562 1563 1564 1565 1566 1567 1568
1420 1422 1425 1426 1428 1431 1434 1437 1440 1442 1446 1449 1452 1455 1458 1462 1466 1469 1472 1474 1478 1481 1483 1487 1490 1493 1496 1499 1502 1505 1508 1511 1513 1516 1518 1521 1523 1526 1527 1530 1532 1534 1536 1539 1541 1543 1545 1547 1548 1549 1551 1553 1554 1555 1556 1558 1559 1560 1561 1562 1563 1564 1566
1415 1418 1420 1421 1423 1426 1428 1430 1433 1436 1440 1443 1446 1449 1453 1458 1462 1464 1467 1470 1473 1476 1479 1483 1486 1488 1491 1494 1498 1500 1503 1507 1509 1512 1515 1517 1520 1521 1524 1526 1528 1531 1533 1535 1537 1539 1541 1543 1545 1546 1548 1549 1551 1552 1553 1554 1556 1557 1559 1560 1561 1562 1563
1410 1412 1413 1415 1418 1419 1421 1424 1428 1431 1435 1439 1443 1446 1449 1454 1457 1459 1463 1465 1468 1471 1474 1477 1480 1483 1486 1489 1493 1495 1498 1502 1505 1508 1511 1513 1515 1517 1520 1522 1524 1527 1529 1531 1533 1535 1537 1539 1541 1543 1544 1546 1547 1548 1550 1551 1553 1554 1556 1557 1558 1559 1561
1406 1408 1409 1410 1412 1414 1417 1421 1424 1428 1432 1436 1440 1442 1445 1449 1452 1455 1458 1460 1463 1466 1469 1472 1475 1478 1481 1484 1488 1490 1493 1497 1500 1503 1506 1508 1510 1513 1515 1518 1521 1523 1526 1527 1529 1531 1533 1535 1537 1539 1541 1542 1544 1545 1547 1548 1549 1551 1553 1554 1555 1557 1558
1404 1406 1408 1409 1411 1413 1416 1418 1421 1425 1428 1431 1434 1437 1440 1444 1447 1449 1452 1455 1458 1461 1463 1467 1470 1473 1476 1480 1482 1485 1489 1492 1495 1498 1500 1503 1505 1508 1511 1514 1516 1519 1521 1523 1525 1527 1529 1531 1533 1535 1537 1538 1540 1541 1543 1544 1546 1548 1549 1551 1552 1554 1555
1402 1404 1406 1408 1410 1412 1414 1417 1419 1422 1424 1426 1429 1433 1436 1439 1441 1444 1447 1451 1453 1455 1458 1462 1466 1468 1471 1475 1478 1481 1485 1487 1490 1492 1495 1498 1500 1503 1506 1509 1512 1514 1516 1519 1521 1523 1525 1527 1529 1531 1533 1534 1535 1537 1539 1540 1542 1544 1546 1547 1549 1550 1552
1400 1402 1404 1406 1407 1409 1411 1413 1415 1417 1419 1421 1424 1427 1430 1433 1436 1439 1442 1445 1448 1451 1454 1458 1461 1464 1466 1470 1474 1477 1479 1482 1485 1487 1489 1492 1495 1498 1502 1505 1507 1509 1511 1514 1516 1518 1520 1523 1525 1526 1528 1529 1531 1533 1534 1536 1538 1540 1542 1544 1545 1547 1548
1399 1400 1402 1403 1404 1406 1408 1409 1410 1412 1414 1416 1418 1421 1424 1428 1431 1434 1437 1440 1443 1446 1450 1453 1456 1459 1461 1465 1469 1471 1473 1476 1479 1481 1484 1487 1490 1494 1497 1499 1502 1504 1506 1509 1511 1513 1515 1517 1520 1521 1523 1525 1527 1529 1530 1532 1534 1536 1538 1540 1542 1543 1544
1398 1399 1400 1401 1402 1403 1405 1406 1407 1408 1410 1412 1414 1416 1419 1423 1425 1428 1431 1434 1437 1442 1446 1449 1452 1454 1456 1460 1463 1466 1467 1470 1473 1476 1479 1482 1485 1489 1491 1494 1496 1499 1501 1503 1505 1507 1509 1512 1514 1516 1518 1521 1523 1525 1526 1528 1530 1532 1534 1536 1537 1539 1540
1397 1398 1398 1399 1400 1400 1401 1402 1403 1404 1406 1408 1410 1412 1415 1418 1421 1423 1426 1429 1433 1437 1440 1443 1446 1449 1451 1454 1457 1459 1461 1464 1468 1471 1474 1477 1480 1484 1486 1488 1491 1493 1496 1498 1500 1502 1504 1507 1510 1512 1514 1516 1519 1521 1522 1524 1526 1527 1529 1531 1533 1535 1536
1395 1396 1396 1397 1397 1398 1398 1399 1400 1402 1403 1405 1407 1410 1412 1414 1417 1419 1423 1426 1429 1432 1435 1438 1440 1443 1446 1449 1451 1452 1455 1459 1463 1466 1469 1473 1475 1478 1480 1483 1486 1488 1491 1492 1494 1497 1499 1502 1505 1507 1509 1511 1514 1516 1518 1519 1520 1522 1524 1527 1528 1530 1532
1392 1394 1395 1395 1395 1396 1396 1397 1397 1399 1401 1402 1404 1406 1408 1410 1412 1415 1418 1420 1424 1427 1430 1433 1435 1438 1442 1443 1444 1447 1451 1455 1458 1461 1464 1467 1470 1472 1475 1478 1480 1483 1485 1487 1490 1492 1495 1498 1500 1502 1504 1506 1509 1511 1512 1513 1515 1516 1519 1522 1524 1526 1528
1391 1392 1392 1393 1394 1394 1394 1394 1395 1396 1397 1398 1399 1401 1404 1406 1408 1411 1414 1416 1419 1421 1425 1427 1430 1433 1436 1437 1438 1443 1447 1450 1454 1456 1459 1462 1464 1467 1470 1473 1475 1478 1481 1483 1485 1487 1490 1492 1495 1497 1499 1501 1503 1505 1507 1508 1509 1512 1515 1517 1520 1522 1524
1390 1390 1390 1390 1391 1392 1392 1392 1392 1393 1394 1394 1396 1398 1399 1401 1405 1407 1409 1411 1413 1416 1420 1422 1425 1428 1430 1431 1434 1439 1442 1446 1449 1451 1453 1456 1459 1462 1466 1469 1471 1473 1476 1478 1480 1483 1485 1487 1489 1492 1495 1496 1498 1500 1501 1502 1504 1507 1510 1513 1515 1518 1520
1388 1388 1388 1387 1387 1388 1389 1389 1389 1389 1390 1391 1393 1394 1395 1398 1401 1402 1404 1406 1409 1412 1416 1417 1419 1422 1425 1428 1431 1435 1438 1441 1444 1446 1449 1451 1455 1458 1461 1464 1466 1468 1470 1473 1475 1478 1480 1482 1484 1487 1489 1491 1493 1494 1496 1498 1499 1502 1505 1508 1511 1514 1515
1385 1385 1385 1385 1384 1385 1385 1386 1386 1386 1386 1388 1389 1390 1393 1395 1397 1398 1401 1404 1408 1411 1414 1415 1416 1419 1421 1424 1428 1430 1434 1437 1439 1441 1444 1447 1450 1454 1456 1459 1461 1463 1466 1468 1471 1473 1474 1477 1480 1482 1484 1486 1488 1490 1491 1493 1494 1497 1500 1503 1506 1509 1511
1382 1382 1383 1382 1382 1382 1382 1382 1383 1383 1384 1385 1386 1388 1390 1391 1392 1395 1398 1401 1405 1408 1411 1413 1415 1417 1420 1422 1425 1428 1430 1432 1434 1437 1440 1443 1446 1448 1451 1453 1455 1458 1461 1463 1466 1468 1470 1472 1475 1477 1479 1481 1483 1485 1486 1487 1489 1492 1496 1498 1501 1504 1507
1380 1380 1380 1380 1380 1379 1379 1379 1380 1380 1381 1382 1383 1384 1385 1386 1388 1392 1395 1397 1401 1403 1407 1410 1413 1416 1418 1421 1423 1425 1427 1429 1432 1435 1438 1440 1443 1445 1447 1449 1450 1453 1456 1459 1462 1464 1466 1468 1469 1471 1474 1476 1478 1480 1480 1482 1484 1487 1490 1493 1496 1499 1501
1378 1378 1377 1377 1377 1376 1376 1376 1377 1377 1378 1379 1380 1380 1380 1382 1386 1389 1392 1394 1397 1400 1403 1406 1409 1411 1414 1417 1419 1422 1425 1427 1430 1432 1434 1436 1438 1440 1442 1443 1445 1448 1451 1453 1456 1458 1460 1462 1464 1466 1468 1470 1472 1474 1475 1477 1479 1481 1485 1488 1491 1493 1495
1376 1376 1375 1375 1375 1374 1374 1374 1374 1375 1376 1376 1377 1377 1378 1380 1383 1386 1389 1390 1393 1396 1399 1401 1404 1406 1408 1411 1413 1415 1419 1422 1424 1426 1428 1429 1431 1433 1435 1438 1440 1443 1445 1447 1450 1452 1454 1456 1459 1461 1462 1463 1465 1467 1469 1472 1473 1476 1479 1482 1485 1487 1488
1375 1375 1374 1374 1373 1373 1372 1372 1372 1373 1373 1374 1374 1375 1376 1378 1380 1383 1385 1387 1390 1393 1395 1397 1399 1400 1403 1405 1407 1410 1415 1418 1419 1421 1423 1425 1426 1429 1432 1434 1437 1439 1441 1443 1445 1447 1450 1452 1454 1454 1455 1456 1458 1461 1464 1466 1468 1470 1473 1476 1479 1481 1483
1374 1374 1373 1372 1372 1372 1371 1371 1371 1371 1371 1372 1372 1373 1374 1376 1378 1380 1383 1385 1388 1390 1391 1393 1395 1397 1400 1403 1406 1410 1413 1415 1416 1417 1420 1422 1424 1426 1429 1432 1433 1435 1437 1439 1441 1443 1446 1447 1447 1448 1449 1450 1452 1454 1457 1460 1462 1463 1466 1469 1472 1475 1479
1374 1373 1372 1372 1371 1371 1370 1370 1369 1370 1370 1370 1371 1372 1373 1375 1376 1379 1381 1384 1386 1387 1389 1392 1394 1397 1400 1403 1406 1408 1410 1412 1413 1414 1416 1419 1421 1424 1426 1428 1429 1431 1433 1435 1438 1440 1441 1442 1442 1443 1443 1445 1446 1447 1449 1452 1455 1457 1459 1462 1466 1470 1473
1374 1373 1372 1372 1371 1370 1370 1369 1369 1369 1369 1369 1370 1371 1372 1374 1376 1378 1380 1383 1385 1387 1389 1392 1394 1396 1398 1400 1402 1404 1406 1407 1410 1411 1413 1415 1417 1420 1422 1423 1425 1428 1430 1432 1434 1436 1437 1438 1439 1440 1441 1441 1441 1441 1442 1445 1447 1450 1453 1456 1459 1463 1466
1374 1374 1373 1372 1371 1370 1370 1370 1369 1369 1369 1369 1370 1371 1372 1373 1375 1377 1380 1382 1383 1385 1387 1389 1391 1393 1395 1397 1398 1400 1401 1403 1405 1407 1409 1410 1413 1415 1417 1419 1421 1423 1425 1427 1430 1431 1433 1434 1436 1438 1439 1438 1436 1436 1437 1439 1440 1443 1446 1449 1452 1456 1459
1374 1374 1373 1373 1372 1370 1370 1370 1369 1369 1369 1369 1370 1371 1372 1373 1374 1375 1378 1379 1381 1383 1384 1386 1388 1390 1392 1394 1395 1397 1399 1400 1402 1404 1405 1407 1409 1411 1412 1414 1415 1417 1419 1421 1424 1425 1426 1427 1429 1431 1433 1432 1432 1431 1431 1431 1432 1435 1438 1441 1445 1449 1452
1374 1374 1373 1373 1372 1371 1370 1370 1369 1370 1369 1369 1370 1371 1371 1372 1373 1374 1375 1377 1379 1380 1382 1384 1385 1387 1389 1390 1392 1394 1396 1398 1400 1402 1403 1405 1407 1408 1409 1410 1411 1412 1414 1415 1417 1419 1420 1420 1421 1422 1422 1423 1425 1425 1426 1426 1427 1428 1430 1434 1438 1442 1446
1374 1373 1373 1372 1372 1371 1371 1370 1369 1369 1369 1369 1370 1371 1371 1372 1372 1373 1374 1375 1376 1378 1379 1381 1383 1384 1386 1388 1389 1392 1394 1396 1397 1399 1401 1402 1404 1405 1406 1407 1408 1408 1409 1410 1412 1413 1413 1414 1414 1413 1413 1414 1416 1418 1421 1424 1424 1423 1424 1428 1432 1437 1441
1374 1373 1373 1372 1372 1372 1372 1370 1370 1369 1369 1369 1369 1370 1371 1371 1371 1372 1373 1373 1375 1376 1377 1379 1380 1382 1383 1385 1387 1389 1390 1392 1394 1396 1397 1398 1399 1400 1401 1402 1403 1404 1404 1404 1406 1407 1407 1407 1408 1408 1408 1409 1411 1413 1415 1418 1420 1421 1422 1423 1427 1431 1435
1375 1374 1373 1372 1372 1373 1373 1372 1371 1369 1368 1368 1368 1369 1369 1370 1370 1371 1371 1372 1374 1375 1376 1377 1379 1380 1382 1383 1384 1386 1387 1389 1391 1393 1394 1395 1395 1396 1396 1397 1397 1398 1397 1398 1399 1400 1401 1403 1404 1405 1406 1407 1409 1411 1411 1411 1412 1413 1414 1417 1421 1426 1430
1377 1375 1374 1373 1373 1373 1374 1374 1372 1370 1368 1368 1368 1368 1368 1368 1369 1370 1371 1372 1373 1374 1375 1376 1377 1378 1380 1381 1382 1383 1384 1385 1387 1388 1390 1390 1391 1391 1392 1392 1393 1393 1392 1393 1393 1394 1396 1397 1399 1399 1399 1401 1404 1405 1405 1404 1403 1403 1405 1410 1416 1421 1423
1377 1376 1375 1374 1373 1374 1374 1374 1372 1370 1369 1368 1368 1368 1368 1368 1368 1369 1370 1371 1372 1373 1374 1375 1376 1377 1378 1379 1380 1380 1381 1382 1383 1384 1385 1386 1387 1387 1387 1387 1388 1388 1388 1388 1389 1390 1391 1392 1392 1392 1393 1395 1396 1395 1394 1394 1395 1397 1399 1403 1409 1413 1416
1377 1376 1375 1374 1373 1373 1374 1374 1372 1371 1370 1369 1370 1369 1369 1368 1369 1369 1370 1370 1371 1372 1374 1374 1375 1376 1376 1377 1377 1378 1378 1379 1380 1380 1381 1382 1382 1383 1382 1382 1383 1383 1383 1384 1385 1386 1386 1386 1386 1387 1388 1388 1388 1388 1388 1388 1390 1392 1393 1395 1400 1407 1412
1376 1376 1375 1373 1371 1371 1372 1372 1371 1371 1371 1371 1371 1371 1370 1370 1370 1370 1371 1371 1371 1372 1372 1372 1373 1373 1373 1374 1375 1375 1376 1377 1377 1377 1378 1378 1378 1378 1378 1378 1377 1377 1377 1379 1379 1380 1380 1380 1380 1380 1380 1380 1381 1382 1382 1382 1383 1384 1385 1388 1394 1400 1404
Wind_Speed
33 34 37 39 44 50 53 54 54 52 52 50 48 47 47 47 49 50 51 50 50 50 50 48 47 45 44 43 41 40 39 38 36 35 35 35 34 34 34 33 33 31 30 29 28 26 24 22 21 21 21 21 21 21 22 21 20 19 18 17 16 16 15
28 32 36 37 42 50 54 54 54 54 53 52 50 49 49 49 49 50 51 50 50 50 50 50 49 48 46 44 42 41 40 39 38 37 36 36 34 33 32 32 32 31 29 29 28 27 26 24 22 21 20 21 21 22 22 22 21 20 19 18 17 17 16
26 31 35 38 43 51 56 55 54 54 54 54 53 52 51 51 49 49 50 50 50 50 51 51 50 49 47 46 44 42 41 40 40 39 38 37 36 34 33 33 31 30 29 28 28 27 27 26 24 22 21 21 21 22 23 22 22 21 19 18 18 18 18
28 32 35 40 46 51 53 54 54 55 56 56 56 54 52 51 49 50 50 50 51 51 51 52 51 50 49 48 46 44 43 42 41 40 39 38 37 35 35 34 32 31 31 30 28 27 27 27 26 24 23 22 22 23 23 23 22 21 20 19 19 19 19
28 31 32 37 44 47 49 53 55 56 57 57 57 56 54 52 51 51 51 51 52 51 51 51 51 51 51 50 48 47 45 43 42 41 41 40 38 37 36 35 33 32 31 31 30 29 28 27 27 26 25 24 24 24 24 24 23 22 20 20 20 20 20
27 31 34 37 41 44 49 53 55 57 58 58 58 58 56 54 54 54 53 52 52 52 52 53 52 52 52 51 49 48 47 45 44 43 42 41 40 39 38 36 35 34 32 31 30 30 30 29 29 28 27 26 25 25 25 25 24 24 22 21 22 22 22
31 32 36 39 40 44 48 51 52 54 56 57 57 57 56 56 56 56 55 55 54 53 53 53 53 53 52 50 50 49 48 46 45 44 43 43 42 41 40 39 37 35 33 32 31 30 31 30 31 30 29 28 27 26 26 26 25 25 23 23 23 23 23
34 31 34 37 41 43 45 47 50 50 52 55 56 56 56 56 56 57 57 57 56 55 55 54 53 53 52 50 49 49 47 46 46 45 45 44 44 43 42 41 39 37 35 34 33 31 31 31 31 32 32 31 30 29 28 27 26 25 24 24 24 24 24
31 28 29 31 34 36 39 43 46 47 49 53 54 56 56 55 56 57 58 58 58 57 57 56 55 54 52 50 49 48 47 46 46 45 45 45 45 45 44 42 40 39 37 36 35 33 33 32 31 32 33 33 33 32 31 30 28 27 26 25 25 25 25
29 29 29 27 26 29 34 39 42 43 46 49 51 53 55 55 57 58 58 58 58 58 57 57 56 56 54 52 50 49 48 47 47 46 46 46 47 46 45 44 42 41 39 38 37 36 34 33 32 32 33 35 35 35 34 33 31 29 28 26 26 26 26
25 28 28 28 27 28 30 34 38 40 43 46 48 51 53 55 57 57 57 58 58 58 58 57 57 57 56 53 52 51 50 49 48 47 47 47 47 46 44 44 43 42 41 40 39 38 36 34 33 33 34 36 37 37 36 36 34 32 29 28 28 27 28
19 19 21 24 28 29 29 31 35 37 40 43 47 50 52 53 54 56 56 57 57 57 57 57 57 57 57 55 54 53 52 51 50 49 49 48 47 45 44 44 43 42 41 40 40 40 38 36 35 34 35 36 37 38 37 37 36 34 31 30 29 29 29
17 16 17 19 24 27 27 29 33 35 38 41 44 48 50 51 53 54 54 55 55 55 55 56 56 56 57 56 54 54 54 53 52 51 50 48 46 45 44 44 44 43 41 40 41 41 40 38 36 35 36 36 37 38 38 38 38 35 32 31 31 31 30
16 17 18 18 21 25 26 28 31 33 36 39 42 44 47 50 52 52 52 53 53 53 54 55 55 56 56 55 54 54 54 54 53 51 50 49 47 46 46 45 44 43 42 41 41 42 40 38 37 36 36 36 37 38 39 39 39 37 35 34 33 33 32
14 14 16 18 20 22 24 27 29 31 33 36 39 41 45 48 50 50 51 51 52 53 53 54 55 55 54 54 54 54 54 54 53 52 51 50 48 48 47 47 45 44 43 42 42 42 40 39 37 37 37 37 37 39 40 41 41 39 37 36 35 35 34
11 13 15 17 18 20 21 24 26 27 30 34 36 39 42 45 48 49 50 51 51 52 53 53 54 53 53 54 54 53 53 53 52 52 52 51 50 50 49 48 47 45 44 43 42 42 42 40 39 39 39 38 38 40 41 43 43 41 39 37 36 36 36
15 17 19 17 15 16 17 20 22 24 27 31 34 37 40 43 46 47 49 50 50 50 51 53 52 52 52 53 53 53 52 52 51 52 52 52 51 51 49 49 48 46 45 44 44 44 43 42 41 40 40 39 39 40 43 45 45 43 40 38 37 37 37
21 22 23 21 18 16 16 17 18 20 24 28 31 35 38 40 43 46 48 49 49 48 50 51 51 51 52 52 52 52 51 51 52 52 51 51 51 51 50 49 48 47 46 45 45 44 44 44 43 41 40 40 41 42 44 46 46 44 41 39 38 38 38
23 24 26 26 24 21 19 18 17 17 19 23 27 31 34 37 41 44 46 48 48 48 50 51 50 50 51 52 52 51 51 51 52 52 52 51 51 50 50 49 49 48 47 46 45 45 45 45 43 42 41 42 42 43 44 46 47 45 42 40 39 39 39
25 25 26 27 27 25 23 21 19 18 17 18 21 26 30 35 38 39 42 46 47 48 49 50 50 50 51 51 52 51 51 51 51 52 52 51 51 50 50 50 49 49 48 48 47 46 47 47 45 44 43 43 43 43 44 46 48 46 43 42 41 40 40
25 24 24 25 25 26 25 23 22 21 20 17 18 22 29 33 36 38 41 43 44 45 47 48 49 49 50 51 51 50 51 52 52 52 52 51 51 50 50 50 49 49 49 49 49 49 48 47 46 45 45 44 43 43 44 46 48 47 45 43 42 41 41
22 22 22 22 24 26 26 25 24 24 21 17 15 20 26 30 33 37 40 41 42 43 44 46 47 47 48 50 50 50 50 50 50 51 51 50 50 50 50 50 50 49 49 49 50 49 48 48 48 47 46 45 44 44 45 46 48 47 46 44 43 42 42
20 20 19 20 22 24 25 25 24 22 19 16 15 19 23 28 32 35 38 40 41 41 42 44 45 45 47 48 49 50 49 49 49 49 49 49 50 50 50 50 49 49 48 48 49 49 49 49 47 45 45 46 45 45 45 46 47 48 46 45 44 44 43
16 16 15 15 17 19 21 21 20 18 15 14 15 17 20 24 29 32 35 37 39 40 42 43 43 44 45 46 48 49 48 46 47 48 49 50 50 50 49 49 49 49 48 48 48 50 51 49 45 43 45 48 47 46 46 45 46 47 46 45 45 45 45
11 10 10 10 11 12 14 14 14 13 12 12 14 15 17 20 24 28 31 34 37 39 40 41 41 41 43 45 47 47 45 44 46 48 48 49 49 49 49 49 49 49 49 49 49 49 48 45 43 43 45 47 48 47 46 45 45 46 46 45 46 46 45
10 10 8 6 5 5 5 7 8 10 10 11 13 14 14 16 19 23 27 30 34 36 37 37 38 39 41 43 44 43 42 43 45 47 47 47 47 48 48 48 48 49 48 49 50 50 47 44 42 42 44 47 48 47 47 46 46 46 47 46 45 45 44
9 11 11 9 6 4 3 3 6 9 10 11 12 13 13 14 16 19 22 26 30 32 32 33 34 36 38 39 40 40 41 42 43 44 45 45 45 46 47 47 48 48 48 49 50 49 47 42 39 40 41 41 41 43 46 47 47 47 47 47 45 44 43
6 8 11 12 11 9 9 8 7 8 10 11 12 12 12 12 13 14 17 21 24 25 26 27 28 30 32 34 35 37 39 40 41 42 44 44 43 44 45 46 48 48 48 49 48 46 43 41 39 38 35 33 36 42 46 48 48 48 47 47 45 43 43
5 5 7 11 12 12 11 10 11 11 11 11 11 11 12 12 12 12 13 17 19 21 23 23 24 26 28 30 32 34 35 37 38 39 41 42 42 42 44 46 47 48 47 48 48 47 44 43 40 36 32 34 39 44 46 49 49 48 47 47 45 43 43
4 3 4 7 10 13 12 11 11 12 12 12 12 11 13 14 13 13 13 15 17 18 19 20 22 24 26 28 30 32 33 34 36 37 39 40 40 41 43 45 47 47 47 47 48 49 49 47 46 42 39 39 39 40 44 49 50 48 48 48 46 45 43
4 3 3 4 7 11 12 12 12 11 11 12 12 12 12 12 13 14 13 14 14 14 14 16 17 20 22 25 27 29 30 32 34 35 37 39 40 41 43 45 46 48 49 48 49 51 50 48 48 49 49 47 44 43 44 46 48 49 50 49 47 46 43
5 5 6 6 6 7 9 12 13 12 12 12 12 11 11 10 11 11 11 11 11 11 12 12 14 16 18 20 22 24 26 29 31 33 35 37 39 40 42 44 46 48 49 49 50 52 51 48 48 52 56 55 54 52 48 45 46 50 51 49 48 46 43
7 7 8 8 8 6 6 8 11 11 12 12 11 10 10 9 8 8 8 8 8 9 10 11 12 13 14 16 18 20 22 25 28 30 32 35 37 39 41 43 46 48 50 50 49 50 53 50 47 49 53 53 52 52 52 50 48 48 49 49 48 47 44
8 8 9 10 9 7 5 6 8 10 10 11 11 9 8 8 6 5 5 6 6 8 8 9 10 11 12 13 15 16 19 22 25 27 30 33 35 38 40 43 45 48 50 51 50 50 51 48 44 44 49 50 46 43 47 52 51 51 53 53 50 47 44
8 8 10 11 10 9 8 8 9 10 11 12 11 9 8 7 6 4 3 3 4 6 7 8 9 10 10 11 11 12 14 18 20 23 27 31 34 37 40 42 44 47 49 50 51 52 52 51 50 51 55 55 50 46 50 56 56 56 57 54 50 47 45
9 9 10 11 11 11 10 10 11 13 13 12 11 10 9 8 7 6 4 2 1 1 3 5 6 8 9 10 10 11 13 14 15 17 21 26 29 33 36 39 41 44 47 49 50 51 52 53 55 55 56 56 56 56 58 59 58 58 57 53 50 48 46
12 13 14 15 16 16 14 13 14 16 16 15 13 11 9 8 7 6 5 5 4 4 4 3 2 3 4 6 8 9 12 13 14 16 19 22 25 28 32 36 38 41 43 45 47 50 52 54 56 57 57 57 58 59 59 59 58 58 58 55 50 48 46
15 17 18 20 21 21 21 20 19 18 17 16 14 13 12 11 10 9 8 7 7 6 6 6 6 6 6 6 7 8 9 12 14 16 19 21 22 25 27 31 34 37 38 40 44 47 50 53 56 58 59 60 61 61 61 61 60 60 60 57 50 45 44
Wind_Direction
206 207 209 209 214 218 221 223 224 224 227 228 227 228 227 227 228 229 229 229 228 229 228 227 227 228 229 229 228 228 228 229 229 230 232 234 236 237 238 238 238 238 237 235 233 232 234 236 237 239 240 242 245 246 246 245 245 247 247 247 247 248 249
204 207 209 208 211 218 222 224 224 224 226 227 228 229 228 228 228 228 229 229 229 230 230 229 228 228 229 230 230 230 230 231 231 231 232 233 235 236 237 238 238 238 237 236 234 233 234 235 235 237 240 242 244 245 246 244 241 242 244 243 243 244 245
206 208 209 210 213 218 222 223 224 224 225 226 227 228 229 230 230 229 229 229 229 230 231 231 230 230 230 230 231 231 231 232 233 233 233 234 234 235 236 237 238 238 237 235 234 233 233 234 234 234 236 239 242 242 243 242 240 240 241 241 241 241 241
212 213 212 214 218 220 220 221 223 225 225 226 226 227 229 230 232 231 230 230 230 230 230 231 231 231 232 232 232 232 232 233 234 234 235 236 236 236 237 237 238 238 238 235 233 232 232 233 234 233 233 236 239 240 241 241 241 241 240 239 238 238 238
219 217 213 215 219 220 219 220 222 224 225 226 227 228 228 229 231 232 232 232 231 232 232 232 232 232 233 233 233 233 233 233 234 235 236 237 238 238 238 239 239 239 239 237 234 232 231 232 234 234 232 233 236 238 239 241 242 241 240 238 236 235 234
222 218 217 218 218 219 220 221 222 223 225 226 227 228 228 228 229 230 232 232 232 233 233 233 234 234 235 234 234 234 235 235 235 235 236 237 238 238 239 239 239 240 240 239 236 233 232 232 233 234 233 232 234 237 239 240 241 241 239 237 234 232 231
227 223 222 221 219 221 223 222 222 223 225 226 227 229 228 226 227 229 230 232 233 233 234 234 234 235 236 236 236 236 236 236 236 236 236 237 238 238 238 239 240 240 240 240 238 235 234 233 232 233 233 232 233 235 238 239 239 240 239 236 233 231 230
233 229 226 225 223 223 222 223 223 221 222 224 225 228 228 226 226 228 229 231 233 233 234 235 235 235 237 236 237 238 238 237 237 238 238 237 238 238 238 238 239 239 240 240 239 237 235 234 233 233 233 233 233 234 236 238 238 238 237 235 233 231 231
238 235 233 229 225 221 221 224 225 220 220 223 224 226 228 226 225 228 230 231 232 232 234 235 235 236 237 237 238 239 239 238 239 239 239 238 238 238 239 239 239 239 239 239 239 238 237 235 234 233 233 233 234 233 235 237 238 237 236 235 233 232 232
244 243 241 237 232 227 225 226 225 222 221 224 224 224 225 226 227 229 230 230 231 233 235 235 234 235 237 238 238 239 239 239 239 240 239 238 238 238 239 239 240 240 239 239 239 238 237 236 235 234 233 232 232 233 234 235 236 236 235 234 233 233 232
251 248 246 245 243 237 231 228 226 224 223 224 223 222 222 225 227 229 230 231 231 233 235 234 232 234 237 237 236 237 238 239 240 240 239 239 238 239 239 239 240 240 240 239 239 239 237 236 235 235 233 231 231 231 232 234 235 236 234 234 234 233 233
258 255 250 248 247 242 234 231 229 226 225 225 223 222 222 222 225 227 229 231 232 233 233 233 233 234 236 236 235 235 238 239 239 239 239 239 239 240 241 240 240 240 240 240 239 240 238 236 235 235 234 232 230 230 231 233 234 235 235 234 235 234 233
262 264 259 252 249 244 238 235 233 230 230 228 225 224 223 222 223 225 227 230 232 232 232 233 233 234 235 235 234 235 237 238 239 239 239 240 241 241 241 241 240 240 241 240 240 240 239 237 235 235 235 234 232 231 231 232 233 233 234 234 235 234 234
260 266 266 259 253 250 246 243 239 236 235 232 229 227 225 223 225 226 227 230 231 231 231 233 234 235 236 235 234 236 238 238 239 239 240 241 242 241 241 241 241 241 241 241 240 240 239 237 236 235 235 235 234 232 232 232 232 231 231 233 234 234 233
248 256 262 261 259 256 253 250 246 242 240 235 231 229 226 225 226 226 227 229 229 230 231 233 235 235 235 235 235 237 238 238 238 239 240 241 241 241 241 241 241 241 241 241 241 240 239 238 236 235 235 235 234 233 233 233 232 230 229 230 232 233 232
259 268 269 269 268 265 262 258 253 248 243 237 233 231 228 226 226 225 226 227 228 229 230 232 235 235 234 235 237 238 238 237 237 239 239 239 240 240 240 240 240 240 240 240 241 241 240 239 237 236 236 235 233 233 234 234 232 229 228 228 230 232 233
278 278 275 274 277 276 273 267 257 250 244 239 236 233 230 229 227 226 226 225 227 229 229 231 234 234 233 235 237 237 237 237 236 237 238 238 238 239 239 239 240 239 239 240 240 240 240 239 237 236 236 235 233 233 234 235 233 230 227 227 229 231 233
272 272 272 275 280 281 280 275 264 252 245 243 240 235 232 231 228 226 226 226 227 228 228 230 233 233 233 235 236 234 234 235 235 236 237 237 237 237 237 238 239 239 239 239 239 239 239 239 238 236 236 235 234 233 234 235 235 232 229 228 228 230 233
263 265 269 275 280 278 274 274 273 264 254 247 244 241 237 233 229 229 229 229 228 227 227 229 232 232 233 233 233 233 233 233 233 235 236 236 236 236 236 237 238 239 239 239 239 239 239 239 238 237 236 236 235 234 233 235 236 233 230 229 229 230 233
259 261 265 270 274 275 272 271 272 272 266 255 248 246 242 236 234 235 233 231 229 226 226 229 231 232 233 232 232 233 232 232 233 234 235 235 235 234 235 237 238 239 239 239 238 238 239 239 239 238 237 237 236 236 234 235 236 234 232 231 230 230 233
256 257 259 262 266 270 273 273 271 271 271 265 252 245 241 237 236 235 232 231 230 229 228 229 230 231 232 231 231 231 231 232 232 233 233 234 233 234 235 236 237 238 238 238 238 238 239 239 239 239 239 238 238 238 237 235 236 235 233 232 232 231 233
252 255 257 260 264 267 270 272 270 268 269 267 252 240 238 236 234 231 230 230 230 231 231 230 230 231 230 230 231 231 231 231 231 231 232 233 232 233 234 236 237 238 237 238 239 238 238 239 239 239 240 240 239 240 239 237 236 236 234 233 232 232 233
247 251 255 259 263 266 268 269 268 265 264 261 248 237 234 235 232 229 228 229 229 230 230 230 231 232 232 232 232 232 231 232 233 233 233 233 234 235 236 237 238 238 237 237 237 237 237 238 238 237 238 239 239 240 241 239 238 236 235 234 233 233 233
239 243 248 255 261 266 267 268 266 261 256 253 245 234 231 233 232 229 228 229 229 229 228 230 232 234 235 234 234 233 234 236 238 237 236 236 236 237 238 239 239 238 238 237 236 237 238 238 236 235 237 238 239 240 241 242 241 240 237 235 235 235 234
215 218 228 241 253 264 267 266 260 250 241 237 233 226 227 232 232 228 227 228 229 229 229 231 234 236 237 236 236 237 238 239 239 238 237 239 240 239 239 239 239 239 239 238 237 237 237 235 234 234 236 238 239 240 241 242 243 243 241 238 237 237 237
174 174 178 191 218 251 263 250 235 223 216 214 213 213 219 228 230 228 226 227 228 229 231 234 237 238 237 236 237 239 239 238 238 239 239 240 242 241 240 240 241 241 240 239 239 238 236 234 233 233 235 238 238 239 240 241 241 243 243 241 239 239 239
151 145 140 138 137 125 123 162 189 193 193 192 191 194 202 213 222 226 225 226 229 232 236 239 241 240 238 237 238 239 239 239 239 241 242 242 242 242 242 242 242 242 241 241 240 238 235 233 232 232 234 235 235 236 240 241 241 242 243 242 241 240 240
143 133 128 124 120 116 115 117 130 155 169 173 176 181 186 194 206 217 222 226 232 237 241 244 245 243 241 241 240 240 241 241 241 242 243 242 242 242 243 242 241 242 242 241 239 237 235 235 234 234 233 232 232 236 240 242 243 242 243 243 242 241 240
143 132 121 119 121 121 120 119 120 124 133 145 159 169 171 173 182 197 211 221 228 233 236 240 243 242 242 243 243 243 244 245 244 243 243 243 243 243 243 242 241 241 242 242 239 237 236 236 237 236 234 234 235 237 239 242 244 244 243 243 242 240 240
120 108 100 112 123 124 124 125 123 120 122 126 136 153 161 163 169 179 195 209 219 226 232 235 238 240 242 245 246 246 247 248 247 246 246 246 246 244 243 242 242 242 242 241 240 237 236 238 239 236 235 236 237 237 238 240 242 243 242 241 240 239 238
65 70 77 84 108 122 126 127 125 125 126 125 130 142 151 158 167 176 185 197 208 219 228 233 238 240 243 247 249 250 251 251 251 251 250 250 248 245 244 244 242 241 241 240 240 238 237 237 238 237 238 239 239 238 238 237 238 241 241 239 238 238 237
40 52 67 72 82 104 119 126 130 132 130 128 130 135 138 147 160 168 176 187 197 208 218 226 234 239 243 247 250 252 253 253 253 253 253 252 249 247 248 247 244 243 242 240 239 237 236 236 236 239 240 240 239 239 237 235 237 241 241 238 237 236 234
41 50 60 67 66 65 85 110 123 129 129 126 126 127 130 138 148 157 168 178 189 202 211 219 226 233 240 244 246 248 250 251 253 253 253 253 252 249 248 247 246 245 244 240 237 236 236 236 237 238 240 240 238 238 237 238 239 241 239 236 234 233 231
32 47 56 62 62 56 56 73 90 104 110 110 110 115 122 130 140 156 174 189 202 210 216 221 226 231 238 242 245 247 247 248 250 250 251 253 254 252 250 248 248 247 246 246 243 239 237 238 238 239 241 241 238 236 236 236 237 239 240 238 234 232 230
26 41 54 57 57 54 52 56 66 77 85 90 93 94 95 99 106 117 143 188 214 222 226 229 230 233 235 236 239 242 244 246 248 249 250 250 252 254 253 252 252 252 252 254 254 250 246 244 243 245 247 246 242 238 237 238 240 243 244 243 240 236 231
33 40 50 54 55 55 53 53 58 63 69 76 84 87 85 81 77 75 71 67 65 238 237 233 231 234 234 235 237 239 241 243 244 248 251 252 253 256 255 254 253 254 254 256 257 255 253 251 249 250 251 249 246 245 246 249 252 249 246 244 244 240 233
47 48 51 54 57 57 57 57 58 59 59 60 67 78 84 83 78 72 57 40 28 15 3 346 307 277 263 258 257 254 252 251 249 249 252 252 253 256 258 257 257 256 256 257 257 256 255 254 253 253 251 249 248 249 250 253 254 249 243 242 241 237 231
52 52 53 53 54 55 57 58 58 58 58 58 61 69 75 76 73 67 57 47 36 19 7 355 342 337 333 320 305 293 281 270 263 259 256 252 251 252 255 258 260 260 258 258 257 256 255 256 256 255 253 250 249 247 246 247 247 245 242 239 235 231 228